Weather in Yesaulivka

Ukraine / Luhansk Region     48°02′59″N   39°01′22″E
temp.,
°C
wind,
m/s
gust,
m/s
humid.,
%
clouds,
%
prec.,
mm/h
press.,
hPa
HPBL,
m
17 may, mon
mon1700:00+20ese716425 0.0 1005428
03:00+18ese615460 0.0 1005376
06:00+16ese6145551 0.0 1005348
09:00+20se795211 0.0 1006540
12:00+24sse5652100 0.0 1006969
15:00+24s4555100 0.0 10061040
18:00+20s6873100 0.0 1007513
21:00+17sw3586100 0.8 1008124
18 may, tue
tue1800:00+16sw51193100 1.9 1008353
03:00+15sw4996100 2.4 1008373
06:00+14ssw3798100 3.9 1008357
09:00+17s458394 5.3 1008682
12:00+19ssw676880 0.4 10091248
15:00+20ssw786154 0.6 10091513
18:00+19ssw576917 0.1 10091009
21:00+14s36880 0.1 1009125
19 may, wed
wed1900:00+13sse239120 0.0 100941
03:00+12se2293100 0.0 100831
06:00+14se3893100 0.0 1008295
09:00+14ssw61093100 0.4 1008694
12:00+14ssw4687100 2.6 1009601
15:00+17ssw6870100 3.8 10091286
18:00+16ssw7107269 1.0 1009963
21:00+12ssw512881 1.0 1010458
20 may, thu
thu2000:00+12ssw512927 0.0 1010448
03:00+11ssw4995100 0.1 1010375
06:00+12sw6108748 0.2 1010691
09:00+12sw6119037 0.6 1011601
12:00+18wsw7105988 0.1 10121768
15:00+18sw686478 0.1 10121055
18:00+19ssw46637 0.0 1012636
21:00+14s2284100 0.0 101325
21 may, fri
fri2100:00+12ese118220 0.0 101310
03:00+11e118724 0.0 101311
06:00+13e2788100 0.0 1013225
09:00+20ese4661100 0.0 1012583
12:00+23se3451100 0.0 1012837
15:00+24se435490 0.0 1011908
18:00+24e35615 0.0 1011827
21:00+19ne338314 0.0 101122